University AP, Davis, CA, CA

12:55 AM PST on December 09, 2019 (GMT -0800)
University AP, Davis, CA

Weather History for KEDU - October, 2019

Change the Weather History Date:

Monday, October 28, 2019

  Actual Average (KSMF) Record (KSMF)
Temperature  
Mean Temperature 55 °F -  
Max Temperature 68 °F 71 °F 87 °F (2003)
Min Temperature 42 °F 47 °F 36 °F (1948)
Degree Days  
Heating Degree Days 10    
Growing Degree Days 5 (Base 50)    
Moisture  
Dew Point 18 °F    
Average Humidity 25    
Maximum Humidity 49    
Minimum Humidity 10    
Precipitation  
Precipitation 0.00 in - - ()
Sea Level Pressure  
Sea Level Pressure 29.98 in    
Wind  
Wind Speed 3 mph ()    
Max Wind Speed 7 mph    
Max Gust Speed -    
Visibility 9.9 miles    
Events      
Averages and records for this station are not official NWS values.
T = Trace of Precipitation, MM = Missing Value Source: Averaged Metar Reports

Daily Weather History Graph

Daily Weather History Graph

Search for Another Location

Airport or City:

Astronomy

Oct. 28, 2019 Rise Set
Actual Time 7:29 AM PDT 6:11 PM PDT
Civil Twilight 7:02 AM PDT 6:39 PM PDT
Nautical Twilight 6:30 AM PDT 7:10 PM PDT
Astronomical Twilight 6:00 AM PDT 7:41 PM PDT
Moon 7:57 AM PDT (10/28) 7:00 PM PDT (10/28)
Length of Visible Light 11h 37m
Length of Day
10h 42m
New Moon, 1% of the Moon is Illuminated
Oct 28
New Moon
Nov 4
First Quarter
Nov 12
Full
Nov 19
Last Quarter
Nov 26
New

Hourly Weather History & Observations

Time (PDT) Temp. Windchill Dew Point Humidity Pressure Visibility Wind Dir Wind Speed Gust Speed Precip Events Conditions
3:15 PM 68.0 °F - 8.6 °F 10% 30.01 in 10.0 mi North 3.5 mph - N/A   Clear
3:30 PM 68.0 °F - 8.6 °F 10% 30.00 in 10.0 mi NE 3.5 mph - N/A   Clear
3:50 PM 68.0 °F - 8.6 °F 10% 30.00 in 10.0 mi ENE 3.5 mph - N/A   Clear
4:15 PM 68.0 °F - 8.6 °F 10% 30.00 in 10.0 mi Calm Calm - N/A   Clear
4:35 PM 68.0 °F - 10.4 °F 11% 29.99 in 10.0 mi Calm Calm - N/A   Clear
4:55 PM 68.0 °F - 10.4 °F 11% 29.99 in 10.0 mi East 4.6 mph - N/A   Clear
5:15 PM 66.2 °F - 12.2 °F 12% 29.99 in 10.0 mi SE 3.5 mph - N/A   Clear
5:30 PM 66.2 °F - 14.0 °F 13% 29.98 in 9.0 mi SSE 3.5 mph - N/A   Clear
5:55 PM 64.4 °F - 17.6 °F 16% 29.98 in 10.0 mi SE 4.6 mph - N/A   Clear
6:15 PM 62.6 °F - 19.4 °F 19% 29.98 in 10.0 mi South 5.8 mph - N/A   Clear
6:35 PM 59.0 °F - 21.2 °F 23% 29.98 in 10.0 mi SSE 3.5 mph - N/A   Clear
6:50 PM 57.2 °F - 21.2 °F 25% 29.98 in 10.0 mi South 3.5 mph - N/A   Clear
7:15 PM 57.2 °F - 19.4 °F 23% 29.98 in 10.0 mi South 5.8 mph - N/A   Clear
7:30 PM 57.2 °F - 19.4 °F 23% 29.98 in 10.0 mi South 5.8 mph - N/A   Clear
7:55 PM 55.4 °F - 19.4 °F 25% 29.97 in 10.0 mi South 6.9 mph - N/A   Clear
8:15 PM 55.4 °F - 19.4 °F 25% 29.97 in 9.0 mi South 4.6 mph - N/A   Clear
8:35 PM 53.6 °F - 21.2 °F 28% 29.97 in 9.0 mi Calm Calm - N/A   Clear
8:55 PM 51.8 °F - 19.4 °F 28% 29.97 in 9.0 mi Calm Calm - N/A   Clear
9:15 PM 50.0 °F - 19.4 °F 30% 29.98 in 10.0 mi SSE 3.5 mph - N/A   Clear
9:35 PM 48.2 °F - 19.4 °F 32% 29.99 in 10.0 mi SSE 3.5 mph - N/A   Clear
9:55 PM 48.2 °F - 21.2 °F 34% 29.99 in 10.0 mi SE 3.5 mph - N/A   Clear
10:15 PM 48.2 °F - 23.0 °F 37% 29.99 in 10.0 mi SSE 3.5 mph - N/A   Clear
10:30 PM 46.4 °F 45.2 °F 23.0 °F 40% 29.99 in 10.0 mi SSE 3.5 mph - N/A   Clear
10:55 PM 46.4 °F - 24.8 °F 43% 29.99 in 10.0 mi Calm Calm - N/A   Clear
11:15 PM 44.6 °F - 24.8 °F 46% 29.98 in 10.0 mi Calm Calm - N/A   Clear
11:35 PM 42.8 °F - 24.8 °F 49% 29.98 in 10.0 mi Calm Calm - N/A   Clear
11:55 PM 42.8 °F - 24.8 °F 49% 29.98 in 10.0 mi Calm Calm - N/A   Clear